Dewpoint
6 6 7 7 7 6 7 6 6 5 5 6 6 6 4 5 5 4 3 4 3 4 4 3 3 2 0 0 -0 -0 -0 -1 0 3 2 2 2 1 1 0 -1 -2 -1
5 6 7 6 6 6 6 6 7 6 7 7 7 6 6 6 5 5 5 5 4 3 4 3 2 2 2 0 -0 -0 -1 -1 -1 1 2 1 1 -0 0 0 -1 -2 -2
6 6 6 6 6 6 7 7 6 6 7 7 6 6 5 5 5 5 5 5 4 4 3 2 2 1 1 1 -0 -1 -1 -2 -3 -1 0 1 1 -0 -0 -2 -3 -3 -3
3 5 6 7 7 7 7 6 6 6 6 5 5 4 3 2 3 4 4 4 3 3 2 2 2 1 1 0 -0 -1 -2 -2 -4 -2 -0 -0 -0 -1 -2 -2 -4 -5 -5
5 5 5 6 7 7 6 5 5 5 5 3 3 3 2 2 2 3 4 4 2 1 1 1 1 1 0 0 0 -1 -1 -3 -3 -4 -3 -1 -1 -2 -2 -3 -3 -4 -6
3 3 4 5 7 7 6 5 5 5 3 1 -0 0 2 2 3 3 2 2 1 1 0 0 -0 -0 -0 -0 -1 -1 -1 -2 -3 -4 -4 -3 -2 -2 -2 -3 -3 -4 -7
2 4 5 5 6 6 6 5 4 2 -1 -1 -2 -2 -3 -3 -2 1 1 1 0 -0 -0 -1 -1 -2 -1 -1 -2 -2 -2 -2 -3 -3 -4 -4 -3 -3 -3 -3 -4 -5 -5
-1 0 1 4 3 1 1 -0 0 -0 -2 -3 -4 -6 -8 -8 -6 -2 0 -0 -0 -1 -1 -1 -2 -2 -3 -3 -4 -4 -4 -4 -4 -4 -3 -3 -4 -4 -4 -4 -4 -5 -6
-0 1 -1 1 1 0 -0 -0 -2 -3 -5 -7 -9 -9 -7 -4 -4 -2 -2 -2 -1 -2 -2 -3 -3 -4 -4 -5 -5 -6 -6 -6 -6 -6 -5 -5 -4 -5 -5 -4 -5 -5 -7
-1 -3 -2 -2 -2 -3 -3 -4 -5 -7 -9 -8 -7 -6 -4 -3 -3 -3 -3 -3 -3 -4 -4 -4 -4 -5 -6 -7 -8 -8 -9 -9 -9 -9 -8 -7 -7 -6 -6 -6 -5 -6 -7
-3 -2 -1 -2 -4 -5 -6 -7 -7 -7 -7 -6 -5 -4 -4 -4 -4 -4 -4 -5 -5 -5 -5 -6 -7 -8 -9 -10 -11 -12 -11 -10 -12 -11 -10 -9 -8 -8 -7 -6 -6 -7 -7
-2 -3 -4 -6 -6 -5 -6 -7 -6 -5 -5 -5 -4 -5 -5 -5 -6 -6 -5 -5 -7 -7 -8 -8 -9 -10 -10 -10 -11 -13 -14 -13 -12 -15 -11 -10 -10 -9 -8 -8 -7 -7 -7
-5 -7 -8 -7 -6 -7 -6 -6 -5 -5 -4 -4 -5 -5 -6 -6 -6 -7 -6 -6 -7 -7 -8 -9 -10 -10 -11 -11 -12 -17 -18 -13 -12 -13 -12 -11 -11 -10 -10 -9 -8 -8 -8
-7 -8 -8 -7 -7 -6 -5 -5 -4 -3 -4 -5 -5 -6 -6 -6 -7 -7 -7 -8 -8 -8 -9 -9 -10 -11 -12 -14 -12 -12 -12 -12 -12 -13 -12 -15 -16 -14 -10 -10 -10 -9 -9
-7 -8 -7 -7 -6 -6 -5 -4 -4 -4 -4 -5 -5 -6 -6 -6 -7 -8 -9 -9 -9 -10 -10 -11 -11 -12 -12 -16 -16 -15 -12 -13 -13 -20 -18 -14 -14 -15 -13 -12 -11 -11 -11
-5 -9 -8 -8 -8 -7 -5 -4 -4 -4 -5 -5 -6 -6 -7 -7 -7 -8 -9 -10 -9 -10 -10 -11 -11 -12 -13 -13 -16 -17 -12 -13 -16 -16 -14 -14 -15 -14 -15 -15 -15 -17 -16
-8 -8 -8 -6 -4 -3 -3 -3 -4 -5 -5 -6 -7 -7 -7 -7 -8 -8 -10 -10 -10 -10 -11 -12 -12 -12 -12 -13 -13 -12 -12 -13 -13 -13 -13 -13 -13 -13 -13 -13 -12 -12 -13
-7 -6 -5 -5 -4 -3 -3 -4 -4 -5 -6 -6 -7 -7 -7 -8 -8 -9 -10 -11 -10 -11 -10 -11 -11 -11 -11 -13 -13 -13 -13 -13 -13 -12 -12 -12 -12 -13 -13 -12 -12 -12 -13
-3 -5 -4 -3 -3 -4 -4 -4 -5 -6 -6 -7 -7 -8 -8 -9 -9 -10 -10 -11 -11 -11 -11 -11 -11 -12 -12 -12 -12 -13 -13 -13 -14 -13 -12 -12 -12 -13 -13 -13 -13 -13 -14
-2 -3 -2 -3 -4 -4 -4 -5 -6 -6 -7 -7 -8 -8 -9 -10 -10 -11 -11 -11 -11 -12 -12 -11 -12 -12 -12 -12 -12 -13 -13 -14 -14 -14 -13 -14 -13 -14 -13 -13 -13 -13 -13
-3 -2 -3 -4 -4 -4 -5 -5 -6 -7 -8 -8 -9 -9 -10 -10 -11 -11 -11 -10 -10 -11 -12 -12 -11 -12 -12 -12 -12 -13 -14 -13 -13 -13 -13 -14 -14 -13 -13 -13 -13 -13 -14
-3 -3 -4 -4 -5 -5 -6 -6 -7 -7 -8 -9 -9 -9 -10 -11 -11 -12 -12 -12 -12 -12 -11 -12 -12 -12 -12 -12 -13 -14 -14 -14 -14 -14 -14 -14 -14 -14 -15 -15 -15 -16 -14
-4 -4 -5 -5 -5 -6 -6 -7 -7 -8 -8 -9 -9 -9 -10 -10 -10 -11 -11 -11 -12 -12 -12 -12 -12 -12 -14 -13 -13 -13 -14 -13 -14 -14 -14 -14 -14 -14 -14 -15 -15 -15 -15
-5 -5 -6 -6 -6 -7 -7 -7 -7 -8 -8 -9 -9 -9 -10 -10 -9 -10 -11 -11 -11 -12 -12 -12 -13 -12 -14 -13 -13 -13 -14 -14 -14 -14 -14 -15 -14 -14 -14 -14 -14 -14 -14
-6 -6 -7 -7 -7 -7 -7 -8 -8 -8 -8 -9 -9 -9 -10 -10 -9 -9 -10 -11 -11 -12 -12 -13 -13 -13 -13 -13 -13 -14 -14 -14 -14 -14 -14 -15 -15 -15 -14 -14 -14 -14 -15
-7 -7 -7 -7 -7 -7 -8 -8 -8 -8 -8 -8 -9 -9 -10 -10 -10 -10 -11 -11 -11 -14 -15 -14 -14 -14 -14 -14 -16 -15 -15 -14 -15 -15 -16 -15 -15 -15 -15 -15 -15 -15 -16
Wind_Speed
20 20 19 16 16 18 19 19 21 19 19 18 17 16 15 14 16 17 17 15 14 15 17 16 15 16 14 13 14 16 19 17 18 15 17 21 20 23 21 20 20 15 13
19 19 19 18 18 18 20 21 19 18 19 19 19 16 14 16 16 17 19 19 17 17 18 16 16 17 15 15 13 14 18 17 15 16 17 20 22 24 21 19 18 15 13
23 23 21 21 22 22 20 21 19 19 20 18 19 18 18 18 17 19 21 21 19 19 21 21 18 18 18 16 13 13 14 15 15 16 16 21 24 22 22 18 18 15 13
24 20 19 20 22 20 19 16 18 19 18 17 16 16 17 18 21 22 23 22 21 22 24 23 22 21 21 16 16 17 17 17 16 12 15 19 24 24 21 21 18 15 15
25 23 17 15 17 19 15 17 19 19 19 20 20 20 21 21 22 24 24 23 25 23 24 25 21 20 20 16 17 18 17 16 17 16 14 20 25 26 25 23 21 19 17
27 21 16 15 18 18 19 21 23 22 20 20 22 23 23 24 25 24 20 20 21 24 24 22 20 17 16 17 18 20 20 18 18 19 14 19 25 26 27 28 23 23 21
20 16 15 14 16 16 17 20 22 22 20 19 20 21 21 22 22 22 21 19 19 22 23 21 16 16 15 17 18 16 17 18 19 24 18 15 20 25 28 28 25 24 28
13 15 14 15 13 17 16 17 18 20 19 19 19 20 20 20 20 20 19 16 17 18 17 15 15 14 15 16 14 13 15 16 18 23 24 21 18 22 24 27 26 26 28
12 6 6 7 9 12 17 21 22 21 20 19 18 16 14 12 13 12 10 12 14 13 14 12 12 12 12 14 15 15 16 16 19 21 23 25 26 22 25 28 31 28 28
7 9 10 18 21 25 23 21 18 16 16 15 14 13 11 8 8 8 8 11 10 10 10 11 11 11 12 13 13 14 13 13 13 13 16 19 19 16 21 22 24 28 30
13 21 23 25 22 18 16 14 14 15 15 13 11 11 8 6 7 8 7 7 9 9 8 8 7 8 8 8 8 8 7 8 10 10 8 9 14 13 14 21 22 24 28
19 19 18 18 16 13 11 12 14 15 14 11 8 8 5 6 7 8 9 8 5 5 4 5 4 4 4 5 6 6 6 6 6 6 4 6 7 9 10 10 13 17 22
18 18 16 13 12 12 11 12 13 14 11 8 7 8 8 7 7 7 5 5 6 6 4 4 3 3 2 3 2 2 2 2 3 2 2 2 4 6 6 8 11 16 15
17 15 13 12 11 9 10 10 11 10 7 7 9 8 7 6 6 5 5 6 7 6 3 2 1 1 2 2 2 2 2 2 2 1 3 3 2 4 9 8 8 9 10
15 14 13 11 10 9 9 10 7 7 8 8 9 9 8 7 4 4 3 6 4 4 3 2 1 2 2 2 3 4 3 2 1 3 6 5 6 5 7 7 8 10 11
13 14 12 9 6 8 12 11 10 10 11 9 9 8 8 7 5 4 3 4 3 2 3 2 3 3 3 2 2 6 4 2 3 6 7 7 6 7 8 8 5 4 6
12 12 12 12 11 14 12 11 13 13 14 11 10 9 9 9 8 5 5 5 6 6 4 2 2 1 2 2 4 4 3 4 5 5 5 5 5 6 5 8 5 4 6
11 14 13 11 9 10 12 13 13 13 12 12 10 9 9 8 9 8 7 7 8 10 6 3 2 1 2 1 2 3 2 1 4 6 4 4 3 4 6 6 6 7 5
15 16 14 10 8 10 14 16 14 12 9 10 12 11 10 9 10 10 9 8 8 8 8 6 4 4 5 4 3 4 4 5 7 9 7 6 6 5 6 6 6 6 5
17 16 13 13 13 14 16 16 15 13 10 8 9 11 11 11 11 12 11 9 8 5 4 7 6 5 7 8 5 3 3 4 8 8 6 6 8 10 9 9 9 8 7
16 15 14 15 15 14 15 16 15 14 12 11 9 11 8 6 6 11 13 10 9 5 5 6 6 7 7 7 6 5 5 4 6 8 6 4 8 10 8 9 8 9 11
13 12 13 15 15 15 16 16 15 13 12 12 11 10 10 10 7 6 9 7 8 9 8 8 9 7 9 10 8 6 5 5 6 8 7 6 7 9 7 6 7 12 12
12 12 13 13 14 13 15 15 14 14 13 11 11 10 10 11 9 5 3 4 5 8 9 9 9 7 8 9 8 7 5 6 5 6 9 8 8 9 8 6 7 9 10
10 11 13 14 15 14 16 16 16 15 13 12 11 10 8 13 11 11 7 7 8 9 10 10 9 10 8 8 8 8 8 9 7 7 8 10 10 12 10 10 10 10 9
12 14 15 15 16 16 17 17 16 16 15 13 13 11 9 17 11 13 11 10 10 11 12 11 13 12 11 10 10 12 11 9 8 7 8 10 12 14 13 13 12 12 12
13 15 16 15 17 17 18 17 16 16 16 15 14 12 11 15 15 14 13 13 13 12 10 11 13 13 13 11 10 11 10 9 8 8 8 11 13 13 13 13 13 13 13
Wind_Direction
206 204 209 214 219 220 223 226 232 239 241 253 254 263 265 264 270 278 286 288 279 269 274 282 272 276 274 273 272 269 271 275 266 259 243 249 251 239 243 249 250 252 267
217 209 207 218 225 229 234 239 243 239 236 242 250 252 253 256 266 269 275 278 276 272 268 266 270 268 282 271 277 278 269 270 272 268 257 242 244 231 247 250 242 251 259
201 207 215 229 231 231 234 239 239 233 235 236 244 243 246 253 257 256 263 266 264 260 262 260 260 261 267 268 270 274 282 274 269 262 256 236 222 229 237 234 233 241 256
223 230 232 232 237 241 236 239 241 233 238 229 235 248 253 256 254 254 255 261 260 263 263 265 259 266 270 266 264 274 273 269 264 267 253 236 224 220 225 227 227 242 246
215 218 230 235 238 234 222 229 231 232 237 235 240 244 247 253 255 256 257 261 266 264 267 269 261 273 262 258 262 266 263 262 260 263 250 233 223 218 220 229 239 246 237
202 203 212 223 225 216 219 227 236 240 248 250 250 253 255 257 262 265 267 261 264 266 267 266 273 271 263 267 269 263 253 242 242 250 245 238 235 231 229 227 226 227 211
190 190 201 217 239 235 240 249 254 256 255 260 264 265 268 268 269 266 260 261 264 265 269 267 266 268 273 273 272 270 266 258 246 239 250 238 237 242 236 227 229 245 237
191 201 219 228 252 264 263 264 263 265 268 270 273 274 275 275 271 268 264 260 258 260 259 265 273 271 271 267 273 280 272 264 254 248 247 251 239 236 235 240 243 235 229
186 192 261 239 243 262 264 262 262 264 269 272 276 279 281 276 278 265 257 255 251 253 268 270 268 264 264 272 280 277 273 267 260 256 252 250 252 254 238 228 226 223 210
247 245 242 258 243 240 244 249 258 269 276 278 285 291 293 282 270 280 260 266 261 259 253 259 265 274 280 283 283 280 283 282 280 264 256 248 247 238 223 223 227 216 210
225 241 247 246 239 241 244 257 271 278 281 284 287 292 293 274 270 270 267 266 259 256 246 255 273 287 293 300 295 289 283 280 289 287 266 248 231 220 214 223 222 222 214
230 226 219 224 229 237 252 266 272 274 274 275 273 281 260 251 252 251 254 256 259 275 307 322 326 318 324 314 304 290 276 277 281 256 252 230 226 214 209 202 210 212 210
200 205 211 216 228 240 251 260 263 264 260 258 252 244 240 250 243 266 224 237 247 254 272 309 317 320 325 332 294 236 194 247 268 255 266 244 223 205 179 174 173 185 194
206 208 213 219 229 245 257 261 262 258 262 265 246 242 236 234 241 267 218 229 228 230 251 250 314 323 34 57 159 182 180 129 57 6 297 266 217 194 202 199 195 193 195
215 216 216 223 236 257 274 290 276 278 264 269 255 247 238 233 233 279 213 208 214 206 178 144 57 37 48 139 153 168 174 191 329 76 107 113 127 150 180 203 214 226 233
230 225 225 230 255 292 276 275 247 249 254 254 238 234 232 229 221 254 219 183 185 147 112 85 85 58 39 96 151 177 206 181 105 137 110 96 110 115 125 127 132 163 214
230 224 218 225 242 258 251 260 250 242 245 247 232 214 211 219 213 223 204 182 176 174 146 91 45 45 65 80 121 131 161 139 119 145 119 111 114 118 124 137 138 124 121
241 226 234 250 262 252 255 249 243 250 250 226 224 222 218 214 207 205 193 189 182 173 179 194 204 239 232 214 182 192 176 190 180 162 168 165 150 123 150 165 155 182 162
252 242 252 261 260 260 251 239 235 239 245 226 219 214 213 200 193 185 181 169 174 192 197 208 231 243 246 241 250 260 255 260 223 213 199 198 180 196 191 184 194 203 201
248 244 241 241 248 252 229 225 226 229 235 235 212 208 201 198 194 188 177 171 171 159 179 197 195 189 200 219 235 243 252 192 178 180 191 211 209 197 197 191 198 198 196
235 231 233 240 242 224 218 217 221 229 222 221 212 202 196 194 183 181 178 182 180 217 235 236 214 220 223 217 239 253 253 219 225 217 207 208 210 208 213 216 216 211 221
228 245 244 231 217 212 216 215 216 217 212 212 199 198 182 164 145 148 179 197 204 204 212 219 228 235 249 244 238 230 219 201 191 209 203 190 201 206 204 216 211 186 205
239 232 225 214 212 212 206 209 209 214 199 203 195 196 192 182 186 188 203 217 242 248 234 242 230 224 208 207 214 220 225 234 226 236 229 210 208 210 206 215 209 210 220
217 215 213 211 209 205 204 206 211 206 199 204 204 207 210 192 202 217 235 246 254 271 236 224 226 225 217 217 227 231 236 230 229 238 242 230 223 223 211 222 227 226 232
202 204 207 210 202 204 203 205 204 198 203 207 212 213 212 198 204 221 244 253 259 265 257 238 218 226 225 228 237 236 232 227 236 250 248 228 222 224 222 227 233 237 244
204 200 201 203 201 201 200 203 201 202 205 208 213 216 215 209 216 232 245 253 262 262 227 216 212 218 225 232 232 224 223 225 228 236 242 227 226 228 231 239 246 247 253
Height
1508 1511 1513 1515 1517 1518 1519 1519 1520 1520 1520 1520 1521 1522 1523 1523 1524 1524 1524 1524 1522 1522 1521 1521 1519 1518 1519 1518 1520 1520 1520 1519 1520 1521 1518 1517 1519 1519 1521 1523 1524 1526 1528
1505 1507 1509 1511 1512 1513 1515 1516 1517 1518 1519 1520 1520 1520 1520 1521 1520 1521 1521 1520 1519 1518 1517 1517 1517 1516 1517 1516 1514 1517 1516 1516 1516 1519 1515 1513 1516 1516 1517 1520 1521 1523 1525
1503 1505 1506 1508 1509 1509 1511 1513 1513 1514 1514 1515 1516 1516 1516 1518 1517 1516 1516 1515 1513 1513 1513 1512 1511 1512 1512 1512 1511 1513 1512 1513 1513 1514 1513 1509 1512 1514 1515 1516 1518 1521 1522
1498 1500 1502 1504 1505 1506 1507 1510 1511 1510 1510 1511 1512 1513 1513 1513 1513 1512 1512 1511 1510 1508 1507 1508 1507 1507 1509 1508 1508 1508 1508 1510 1510 1510 1509 1507 1508 1511 1513 1514 1515 1517 1520
1493 1497 1499 1502 1503 1503 1504 1507 1506 1505 1506 1507 1508 1508 1507 1506 1506 1507 1507 1507 1506 1505 1503 1503 1503 1503 1504 1503 1503 1503 1504 1506 1508 1507 1506 1505 1505 1507 1509 1510 1512 1515 1517
1486 1490 1493 1496 1500 1501 1501 1502 1504 1503 1502 1503 1504 1504 1504 1502 1500 1501 1503 1501 1500 1500 1499 1499 1499 1499 1500 1500 1498 1499 1499 1501 1503 1502 1502 1502 1502 1504 1505 1505 1508 1511 1513
1480 1483 1487 1490 1499 1500 1500 1501 1501 1502 1499 1498 1498 1498 1497 1496 1495 1496 1497 1497 1496 1494 1493 1493 1495 1496 1496 1495 1494 1494 1494 1495 1497 1498 1497 1497 1497 1499 1501 1501 1502 1504 1505
1478 1480 1484 1487 1493 1497 1498 1499 1499 1499 1497 1496 1495 1494 1492 1491 1490 1490 1491 1491 1491 1490 1489 1489 1490 1491 1491 1490 1491 1490 1490 1490 1492 1493 1492 1492 1492 1493 1494 1496 1498 1500 1501
1480 1482 1483 1485 1489 1494 1495 1495 1494 1494 1491 1489 1488 1488 1488 1487 1486 1485 1486 1487 1487 1486 1485 1486 1486 1486 1487 1487 1486 1486 1486 1486 1486 1487 1486 1486 1486 1487 1488 1490 1490 1494 1497
1475 1481 1485 1487 1482 1484 1487 1488 1488 1488 1486 1485 1483 1484 1483 1484 1484 1484 1484 1484 1483 1483 1484 1483 1483 1483 1483 1482 1482 1481 1482 1481 1481 1481 1480 1480 1480 1481 1483 1485 1487 1489 1492
1473 1476 1476 1478 1481 1482 1483 1483 1483 1484 1483 1483 1483 1482 1481 1481 1482 1482 1482 1481 1481 1481 1481 1480 1479 1479 1480 1479 1478 1478 1478 1479 1479 1478 1477 1477 1477 1478 1479 1481 1483 1487 1489
1463 1467 1472 1476 1478 1479 1479 1480 1480 1480 1479 1479 1480 1480 1480 1479 1479 1479 1479 1478 1479 1479 1478 1477 1477 1477 1478 1477 1477 1477 1477 1478 1478 1477 1476 1476 1476 1477 1479 1480 1481 1484 1488
1462 1465 1469 1471 1474 1475 1476 1476 1476 1475 1475 1476 1477 1477 1476 1476 1476 1476 1476 1477 1478 1479 1477 1476 1476 1476 1476 1476 1476 1476 1477 1477 1477 1477 1477 1476 1476 1477 1479 1480 1482 1485 1487
1461 1464 1466 1469 1471 1472 1472 1473 1472 1473 1474 1474 1475 1474 1473 1473 1473 1473 1474 1476 1477 1477 1476 1475 1476 1476 1476 1475 1476 1477 1477 1477 1478 1477 1477 1477 1476 1477 1479 1481 1483 1485 1487
1460 1462 1464 1466 1467 1468 1468 1470 1470 1470 1471 1471 1472 1472 1472 1471 1471 1471 1473 1475 1475 1475 1475 1474 1475 1475 1475 1476 1477 1478 1479 1479 1478 1477 1477 1478 1478 1479 1480 1481 1483 1484 1487
1458 1460 1462 1464 1464 1465 1466 1465 1469 1468 1469 1468 1469 1470 1471 1471 1469 1470 1472 1473 1474 1474 1474 1474 1475 1476 1476 1477 1477 1478 1479 1479 1479 1479 1479 1479 1480 1480 1481 1483 1484 1485 1486
1454 1457 1459 1460 1460 1461 1462 1463 1465 1464 1465 1465 1466 1467 1469 1469 1468 1470 1472 1472 1473 1474 1474 1475 1476 1476 1477 1478 1478 1479 1479 1480 1480 1480 1481 1482 1482 1482 1483 1484 1486 1487 1488
1451 1453 1455 1456 1458 1459 1459 1460 1461 1462 1463 1463 1463 1464 1466 1466 1468 1469 1471 1472 1472 1473 1474 1475 1476 1477 1477 1478 1479 1479 1480 1480 1481 1481 1482 1483 1483 1484 1485 1486 1487 1489 1490
1447 1450 1451 1452 1454 1455 1456 1457 1459 1459 1460 1461 1461 1463 1464 1465 1467 1468 1470 1471 1472 1473 1474 1474 1475 1476 1477 1478 1479 1480 1480 1480 1481 1482 1483 1484 1485 1486 1487 1488 1489 1491 1492
1444 1445 1448 1449 1450 1451 1452 1454 1456 1457 1458 1459 1459 1461 1462 1464 1465 1467 1469 1470 1471 1472 1473 1474 1475 1476 1477 1478 1479 1479 1480 1480 1481 1482 1483 1484 1485 1486 1487 1488 1490 1491 1493
1440 1442 1444 1446 1446 1447 1449 1451 1453 1455 1456 1458 1458 1460 1462 1464 1465 1466 1468 1469 1470 1471 1472 1473 1473 1474 1476 1477 1478 1478 1479 1480 1481 1482 1483 1484 1485 1486 1487 1489 1491 1492 1492
1436 1439 1440 1441 1443 1444 1446 1448 1451 1453 1455 1456 1458 1459 1461 1463 1465 1466 1467 1468 1468 1470 1471 1472 1473 1474 1475 1475 1477 1478 1478 1479 1481 1482 1483 1484 1485 1486 1488 1489 1490 1491 1492
1431 1434 1436 1438 1441 1442 1444 1446 1449 1451 1453 1455 1457 1459 1460 1462 1464 1465 1466 1467 1468 1469 1470 1470 1471 1472 1473 1474 1476 1477 1478 1479 1480 1481 1482 1484 1485 1486 1487 1488 1490 1491 1492
1428 1431 1434 1436 1438 1440 1442 1445 1447 1449 1451 1453 1455 1457 1459 1461 1462 1463 1465 1466 1467 1467 1468 1469 1470 1471 1473 1474 1475 1476 1477 1478 1479 1481 1481 1483 1484 1485 1487 1488 1489 1490 1491
1425 1428 1431 1433 1435 1438 1440 1443 1445 1447 1449 1451 1454 1455 1457 1458 1459 1461 1463 1464 1465 1465 1466 1466 1468 1470 1471 1472 1473 1474 1476 1477 1478 1479 1480 1482 1483 1484 1485 1487 1488 1489 1490
1422 1425 1429 1431 1433 1435 1438 1440 1443 1445 1447 1449 1451 1452 1454 1455 1457 1459 1461 1462 1462 1463 1463 1464 1466 1468 1469 1471 1472 1473 1474 1476 1477 1478 1479 1480 1481 1482 1484 1485 1486 1487 1487